| time (UTC) | temp C | wind direction | speed KPH | gust KPH | rain 1hr cm | rain 24hr cm | rain mn cm | humidity % | barometer mb |
| 20260505235035 | 23 | 0 | 1.6 | 9.7 | 0.00 | 0.00 | 0.00 | 52 | 1013.1 |
| 20260505234604 | 24 | 264 | 0.0 | 14.5 | 0.00 | 0.00 | 0.00 | 52 | 1013.0 |
| 20260505234035 | 24 | 265 | 3.2 | 14.5 | 0.00 | 0.00 | 0.00 | 51 | 1013.0 |
| 20260505233535 | 24 | 0 | 0.0 | 19.3 | 0.00 | 0.00 | 0.00 | 52 | 1013.0 |
| 20260505233049 | 24 | 0 | 0.0 | 19.3 | 0.00 | 0.00 | 0.00 | 52 | 1013.0 |
| 20260505232538 | 24 | 261 | 8.0 | 19.3 | 0.00 | 0.00 | 0.00 | 50 | 1012.9 |
| 20260505232035 | 24 | 273 | 1.6 | 12.9 | 0.00 | 0.00 | 0.00 | 51 | 1012.9 |
| 20260505231545 | 25 | 257 | 1.6 | 16.1 | 0.00 | 0.00 | 0.00 | 52 | 1012.8 |
| 20260505231038 | 25 | 0 | 1.6 | 16.1 | 0.00 | 0.00 | 0.00 | 52 | 1012.7 |
| 20260505230534 | 25 | 260 | 3.2 | 12.9 | 0.00 | 0.00 | 0.00 | 52 | 1012.9 |
| 20260505230046 | 25 | 284 | 1.6 | 6.4 | 0.00 | 0.00 | 0.00 | 52 | 1012.9 |
| 20260505225537 | 25 | 0 | 0.0 | 11.3 | 0.00 | 0.00 | 0.00 | 53 | 1012.8 |
| 20260505225035 | 25 | 0 | 1.6 | 14.5 | 0.00 | 0.00 | 0.00 | 51 | 1012.9 |
| 20260505224543 | 25 | 269 | 1.6 | 14.5 | 0.00 | 0.00 | 0.00 | 50 | 1013.0 |
| 20260505224034 | 25 | 273 | 0.0 | 11.3 | 0.00 | 0.00 | 0.00 | 50 | 1013.0 |
| 20260505223534 | 25 | 38 | 1.6 | 17.7 | 0.00 | 0.00 | 0.00 | 50 | 1012.9 |
| 20260505223051 | 25 | 0 | 0.0 | 17.7 | 0.00 | 0.00 | 0.00 | 50 | 1013.0 |
| 20260505222534 | 25 | 0 | 3.2 | 17.7 | 0.00 | 0.00 | 0.00 | 50 | 1013.0 |
| 20260505222034 | 25 | 273 | 0.0 | 16.1 | 0.00 | 0.00 | 0.00 | 49 | 1013.2 |
| 20260505221549 | 25 | 265 | 3.2 | 12.9 | 0.00 | 0.00 | 0.00 | 48 | 1013.2 |
| 20260505221035 | 25 | 0 | 3.2 | 17.7 | 0.00 | 0.00 | 0.00 | 48 | 1013.2 |
| 20260505220535 | 26 | 0 | 3.2 | 17.7 | 0.00 | 0.00 | 0.00 | 47 | 1013.1 |
| 20260505220048 | 26 | 0 | 4.8 | 14.5 | 0.00 | 0.00 | 0.00 | 47 | 1013.0 |
| 20260505215534 | 26 | 0 | 3.2 | 16.1 | 0.00 | 0.00 | 0.00 | 49 | 1013.1 |
| 20260505215035 | 26 | 266 | 3.2 | 16.1 | 0.00 | 0.00 | 0.00 | 46 | 1013.1 |
| 20260505214554 | 26 | 0 | 3.2 | 14.5 | 0.00 | 0.00 | 0.00 | 47 | 1013.1 |
| 20260505214035 | 26 | 279 | 4.8 | 14.5 | 0.00 | 0.00 | 0.00 | 46 | 1013.1 |
| 20260505213536 | 26 | 0 | 0.0 | 12.9 | 0.00 | 0.00 | 0.00 | 47 | 1013.2 |
| 20260505213045 | 26 | 0 | 1.6 | 17.7 | 0.00 | 0.00 | 0.00 | 46 | 1013.1 |
| 20260505212535 | 26 | 269 | 3.2 | 17.7 | 0.00 | 0.00 | 0.00 | 46 | 1013.0 |
| 20260505212038 | 27 | 262 | 6.4 | 14.5 | 0.00 | 0.00 | 0.00 | 46 | 1013.1 |
| 20260505211555 | 27 | 247 | 4.8 | 12.9 | 0.00 | 0.00 | 0.00 | 44 | 1013.0 |
| 20260505211034 | 27 | 0 | 0.0 | 12.9 | 0.00 | 0.00 | 0.00 | 44 | 1013.1 |
| 20260505210534 | 27 | 255 | 3.2 | 16.1 | 0.00 | 0.00 | 0.00 | 45 | 1013.2 |
| 20260505210046 | 27 | 250 | 3.2 | 16.1 | 0.00 | 0.00 | 0.00 | 45 | 1013.2 |
| 20260505205535 | 27 | 0 | 0.0 | 14.5 | 0.00 | 0.00 | 0.00 | 44 | 1013.2 |
| 20260505205034 | 27 | 0 | 1.6 | 14.5 | 0.00 | 0.00 | 0.00 | 45 | 1013.4 |
| 20260505204549 | 27 | 267 | 3.2 | 25.7 | 0.00 | 0.00 | 0.00 | 44 | 1013.4 |
| 20260505204034 | 26 | 267 | 6.4 | 25.7 | 0.00 | 0.00 | 0.00 | 43 | 1013.3 |
| 20260505203534 | 27 | 338 | 4.8 | 22.5 | 0.00 | 0.00 | 0.00 | 44 | 1013.4 |
| 20260505203105 | 27 | 266 | 4.8 | 19.3 | 0.00 | 0.00 | 0.00 | 42 | 1013.4 |
| 20260505202535 | 27 | 254 | 9.7 | 19.3 | 0.00 | 0.00 | 0.00 | 40 | 1013.4 |
| 20260505202035 | 28 | 269 | 3.2 | 16.1 | 0.00 | 0.00 | 0.00 | 41 | 1013.3 |
| 20260505201545 | 27 | 0 | 3.2 | 16.1 | 0.00 | 0.00 | 0.00 | 44 | 1013.3 |
| 20260505201034 | 27 | 265 | 3.2 | 16.1 | 0.00 | 0.00 | 0.00 | 43 | 1013.4 |
| 20260505200535 | 27 | 0 | 1.6 | 12.9 | 0.00 | 0.00 | 0.00 | 44 | 1013.4 |
| 20260505200054 | 27 | 0 | 0.0 | 19.3 | 0.00 | 0.00 | 0.00 | 46 | 1013.4 |
| 20260505195536 | 26 | 263 | 4.8 | 19.3 | 0.00 | 0.00 | 0.00 | 45 | 1013.5 |
| 20260505195034 | 27 | 265 | 6.4 | 19.3 | 0.00 | 0.00 | 0.00 | 44 | 1013.6 |
| 20260505194548 | 27 | 261 | 3.2 | 17.7 | 0.00 | 0.00 | 0.00 | 44 | 1013.7 |
| 20260505194034 | 27 | 281 | 4.8 | 17.7 | 0.00 | 0.00 | 0.00 | 41 | 1013.8 |
| 20260505193535 | 27 | 0 | 4.8 | 17.7 | 0.00 | 0.00 | 0.00 | 44 | 1013.9 |
| 20260505193047 | 26 | 286 | 3.2 | 17.7 | 0.00 | 0.00 | 0.00 | 46 | 1014.0 |
| 20260505192538 | 26 | 267 | 4.8 | 25.7 | 0.00 | 0.00 | 0.00 | 46 | 1014.1 |
| 20260505192034 | 26 | 277 | 6.4 | 25.7 | 0.00 | 0.00 | 0.00 | 44 | 1014.2 |
| 20260505191555 | 26 | 267 | 4.8 | 16.1 | 0.00 | 0.00 | 0.00 | 46 | 1014.2 |
| 20260505191033 | 26 | 273 | 4.8 | 16.1 | 0.00 | 0.00 | 0.00 | 45 | 1014.2 |
| 20260505190534 | 26 | 269 | 4.8 | 16.1 | 0.00 | 0.00 | 0.00 | 45 | 1014.4 |
| 20260505190045 | 26 | 251 | 6.4 | 14.5 | 0.00 | 0.00 | 0.00 | 46 | 1014.5 |
| 20260505185537 | 26 | 0 | 0.0 | 19.3 | 0.00 | 0.00 | 0.00 | 46 | 1014.5 |
| 20260505185035 | 26 | 262 | 8.0 | 19.3 | 0.00 | 0.00 | 0.00 | 44 | 1014.5 |
| 20260505184549 | 26 | 254 | 4.8 | 17.7 | 0.00 | 0.00 | 0.00 | 44 | 1014.4 |
| 20260505184035 | 26 | 268 | 4.8 | 16.1 | 0.00 | 0.00 | 0.00 | 46 | 1014.7 |
| 20260505183535 | 26 | 274 | 0.0 | 17.7 | 0.00 | 0.00 | 0.00 | 45 | 1014.7 |
| 20260505183045 | 26 | 249 | 6.4 | 17.7 | 0.00 | 0.00 | 0.00 | 45 | 1014.8 |
| 20260505182538 | 26 | 218 | 3.2 | 14.5 | 0.00 | 0.00 | 0.00 | 46 | 1015.0 |
| 20260505182034 | 26 | 268 | 1.6 | 11.3 | 0.00 | 0.00 | 0.00 | 47 | 1015.2 |
| 20260505181548 | 26 | 0 | 3.2 | 16.1 | 0.00 | 0.00 | 0.00 | 47 | 1015.1 |
| 20260505181039 | 26 | 263 | 1.6 | 22.5 | 0.00 | 0.00 | 0.00 | 47 | 1015.1 |
| 20260505180539 | 26 | 250 | 4.8 | 22.5 | 0.00 | 0.00 | 0.00 | 46 | 1015.2 |
| 20260505180048 | 26 | 272 | 6.4 | 16.1 | 0.00 | 0.00 | 0.00 | 44 | 1015.2 |
| 20260505175537 | 26 | 258 | 4.8 | 16.1 | 0.00 | 0.00 | 0.00 | 48 | 1015.2 |
| 20260505175035 | 26 | 263 | 0.0 | 12.9 | 0.00 | 0.00 | 0.00 | 48 | 1015.2 |
| 20260505174543 | 26 | 249 | 3.2 | 14.5 | 0.00 | 0.00 | 0.00 | 47 | 1015.3 |
| 20260505174034 | 26 | 267 | 4.8 | 16.1 | 0.00 | 0.00 | 0.00 | 49 | 1015.3 |
| 20260505173534 | 26 | 262 | 6.4 | 16.1 | 0.00 | 0.00 | 0.00 | 47 | 1015.3 |
| 20260505173050 | 26 | 252 | 0.0 | 14.5 | 0.00 | 0.00 | 0.00 | 48 | 1015.3 |
| 20260505172533 | 25 | 0 | 0.0 | 11.3 | 0.00 | 0.00 | 0.00 | 49 | 1015.3 |
| 20260505172034 | 25 | 268 | 3.2 | 11.3 | 0.00 | 0.00 | 0.00 | 48 | 1015.3 |
| 20260505171546 | 25 | 265 | 1.6 | 16.1 | 0.00 | 0.00 | 0.00 | 48 | 1015.4 |
| 20260505171035 | 25 | 272 | 1.6 | 16.1 | 0.00 | 0.00 | 0.00 | 48 | 1015.4 |
| 20260505170534 | 25 | 252 | 6.4 | 16.1 | 0.00 | 0.00 | 0.00 | 46 | 1015.5 |
| 20260505170048 | 25 | 269 | 3.2 | 16.1 | 0.00 | 0.00 | 0.00 | 48 | 1015.5 |
| 20260505165534 | 25 | 260 | 4.8 | 20.9 | 0.00 | 0.00 | 0.00 | 50 | 1015.5 |
| 20260505165034 | 24 | 254 | 8.0 | 20.9 | 0.00 | 0.00 | 0.00 | 46 | 1015.5 |
| 20260505164547 | 24 | 271 | 1.6 | 14.5 | 0.00 | 0.00 | 0.00 | 52 | 1015.7 |
| 20260505164035 | 24 | 0 | 1.6 | 16.1 | 0.00 | 0.00 | 0.00 | 53 | 1015.6 |
| 20260505163534 | 24 | 265 | 3.2 | 16.1 | 0.00 | 0.00 | 0.00 | 53 | 1015.8 |
| 20260505163045 | 23 | 0 | 3.2 | 12.9 | 0.00 | 0.00 | 0.00 | 54 | 1015.7 |
| 20260505162536 | 23 | 264 | 3.2 | 14.5 | 0.00 | 0.00 | 0.00 | 56 | 1015.7 |
| 20260505162034 | 23 | 0 | 3.2 | 14.5 | 0.00 | 0.00 | 0.00 | 54 | 1015.8 |
| 20260505161545 | 23 | 0 | 4.8 | 16.1 | 0.00 | 0.00 | 0.00 | 57 | 1015.8 |
| 20260505161036 | 23 | 0 | 3.2 | 16.1 | 0.00 | 0.00 | 0.00 | 59 | 1015.8 |
| 20260505160535 | 23 | 267 | 0.0 | 11.3 | 0.00 | 0.00 | 0.00 | 60 | 1015.9 |
| 20260505153049 | 22 | 258 | 1.6 | 12.9 | 0.00 | 0.00 | 0.00 | 61 | 1016.2 |
| 20260505152533 | 22 | 0 | 1.6 | 16.1 | 0.00 | 0.00 | 0.00 | 62 | 1016.2 |
| 20260505152035 | 22 | 263 | 4.8 | 19.3 | 0.00 | 0.00 | 0.00 | 61 | 1016.2 |
| 20260505151550 | 21 | 273 | 4.8 | 19.3 | 0.00 | 0.00 | 0.00 | 61 | 1016.2 |
| 20260505151034 | 21 | 265 | 3.2 | 14.5 | 0.00 | 0.00 | 0.00 | 62 | 1016.3 |
| 20260505150534 | 21 | 0 | 3.2 | 14.5 | 0.00 | 0.00 | 0.00 | 64 | 1016.2 |
| 20260505140534 | 19 | 262 | 3.2 | 20.9 | 0.00 | 0.00 | 0.00 | 69 | 1016.1 |
| 20260505125036 | 17 | 259 | 4.8 | 14.5 | 0.00 | 0.00 | 0.00 | 75 | 1016.2 |
| 20260505124551 | 16 | 267 | 3.2 | 12.9 | 0.00 | 0.00 | 0.00 | 77 | 1016.3 |
| 20260505124035 | 16 | 255 | 4.8 | 12.9 | 0.00 | 0.00 | 0.00 | 77 | 1016.3 |
| 20260505123536 | 16 | 271 | 3.2 | 12.9 | 0.00 | 0.00 | 0.00 | 79 | 1016.4 |
| 20260505123046 | 15 | 273 | 1.6 | 12.9 | 0.00 | 0.00 | 0.00 | 80 | 1016.3 |
| 20260505122535 | 15 | 262 | 1.6 | 11.3 | 0.00 | 0.00 | 0.00 | 81 | 1016.4 |
| 20260505122036 | 14 | 260 | 3.2 | 9.7 | 0.00 | 0.00 | 0.00 | 83 | 1016.3 |
| 20260505121549 | 14 | 271 | 0.0 | 9.7 | 0.00 | 0.00 | 0.00 | 84 | 1016.4 |
| 20260505121036 | 13 | 261 | 3.2 | 9.7 | 0.00 | 0.00 | 0.00 | 86 | 1016.3 |
| 20260505120536 | 12 | 0 | 3.2 | 9.7 | 0.00 | 0.00 | 0.00 | 90 | 1016.2 |
| 20260505115535 | 11 | 260 | 0.0 | 0.0 | 0.00 | 0.00 | 0.00 | 92 | 1016.2 |
| 20260505115035 | 11 | 0 | 0.0 | 0.0 | 0.00 | 0.00 | 0.00 | 92 | 1016.1 |
| 20260505114551 | 11 | 0 | 0.0 | 0.0 | 0.00 | 0.00 | 0.00 | 92 | 1016.1 |
| 20260505114036 | 11 | 0 | 0.0 | 0.0 | 0.00 | 0.00 | 0.00 | 92 | 1016.1 |
| 20260505113535 | 10 | 0 | 0.0 | 0.0 | 0.00 | 0.00 | 0.00 | 92 | 1016.2 |
| 20260505113054 | 10 | 0 | 0.0 | 0.0 | 0.00 | 0.00 | 0.00 | 92 | 1016.2 |
| 20260505112535 | 10 | 0 | 0.0 | 0.0 | 0.00 | 0.00 | 0.00 | 92 | 1016.1 |
| 20260505112035 | 10 | 0 | 0.0 | 0.0 | 0.00 | 0.00 | 0.00 | 91 | 1016.0 |
| 20260505111548 | 10 | 0 | 0.0 | 0.0 | 0.00 | 0.00 | 0.00 | 91 | 1016.0 |
| 20260505111038 | 10 | 0 | 0.0 | 0.0 | 0.00 | 0.00 | 0.00 | 91 | 1015.8 |
| 20260505110535 | 10 | 0 | 0.0 | 0.0 | 0.00 | 0.00 | 0.00 | 91 | 1015.8 |
| 20260505102035 | 10 | 0 | 0.0 | 0.0 | 0.00 | 0.00 | 0.00 | 89 | 1015.4 |
| 20260505101554 | 10 | 0 | 0.0 | 0.0 | 0.00 | 0.00 | 0.00 | 89 | 1015.4 |
| 20260505101035 | 10 | 0 | 0.0 | 0.0 | 0.00 | 0.00 | 0.00 | 89 | 1015.4 |
| 20260505100536 | 10 | 0 | 0.0 | 0.0 | 0.00 | 0.00 | 0.00 | 89 | 1015.4 |
| 20260505100046 | 10 | 0 | 0.0 | 0.0 | 0.00 | 0.00 | 0.00 | 89 | 1015.3 |
| 20260505095537 | 10 | 0 | 0.0 | 0.0 | 0.00 | 0.00 | 0.00 | 88 | 1015.4 |
| 20260505095035 | 10 | 0 | 0.0 | 0.0 | 0.00 | 0.00 | 0.00 | 88 | 1015.3 |
| 20260505094552 | 10 | 0 | 0.0 | 0.0 | 0.00 | 0.00 | 0.00 | 89 | 1015.3 |
| 20260505094035 | 10 | 0 | 0.0 | 0.0 | 0.00 | 0.00 | 0.00 | 89 | 1015.4 |
| 20260505093535 | 10 | 0 | 0.0 | 0.0 | 0.00 | 0.00 | 0.00 | 88 | 1015.2 |
| 20260505093053 | 10 | 0 | 0.0 | 0.0 | 0.00 | 0.00 | 0.00 | 88 | 1015.1 |
| 20260505092535 | 10 | 0 | 0.0 | 0.0 | 0.00 | 0.00 | 0.00 | 88 | 1015.2 |
| 20260505092038 | 10 | 0 | 0.0 | 0.0 | 0.00 | 0.00 | 0.00 | 87 | 1015.1 |
| 20260505091545 | 11 | 0 | 0.0 | 0.0 | 0.00 | 0.00 | 0.00 | 87 | 1015.1 |
| 20260505091034 | 11 | 0 | 0.0 | 0.0 | 0.00 | 0.00 | 0.00 | 87 | 1015.1 |
| 20260505090535 | 11 | 0 | 0.0 | 0.0 | 0.00 | 0.00 | 0.00 | 87 | 1015.1 |
| 20260505090048 | 11 | 0 | 0.0 | 0.0 | 0.00 | 0.00 | 0.00 | 86 | 1015.0 |
| 20260505085540 | 11 | 0 | 0.0 | 0.0 | 0.00 | 0.00 | 0.00 | 86 | 1015.1 |
| 20260505085038 | 11 | 0 | 0.0 | 0.0 | 0.00 | 0.00 | 0.00 | 85 | 1015.0 |
| 20260505084547 | 11 | 0 | 0.0 | 0.0 | 0.00 | 0.00 | 0.00 | 85 | 1015.0 |
| 20260505084034 | 11 | 0 | 0.0 | 0.0 | 0.00 | 0.00 | 0.00 | 85 | 1014.9 |
| 20260505083538 | 11 | 0 | 0.0 | 0.0 | 0.00 | 0.00 | 0.00 | 85 | 1014.9 |
| 20260505083101 | 11 | 0 | 0.0 | 0.0 | 0.00 | 0.00 | 0.00 | 84 | 1014.8 |
| 20260505082536 | 12 | 0 | 0.0 | 0.0 | 0.00 | 0.00 | 0.00 | 84 | 1014.8 |
| 20260505082035 | 12 | 0 | 0.0 | 0.0 | 0.00 | 0.00 | 0.00 | 83 | 1014.9 |
| 20260505081545 | 12 | 0 | 0.0 | 0.0 | 0.00 | 0.00 | 0.00 | 83 | 1014.7 |
| 20260505081035 | 12 | 0 | 0.0 | 0.0 | 0.00 | 0.00 | 0.00 | 82 | 1014.8 |
| 20260505080536 | 12 | 0 | 0.0 | 0.0 | 0.00 | 0.00 | 0.00 | 82 | 1014.8 |
| 20260505080045 | 12 | 0 | 0.0 | 0.0 | 0.00 | 0.00 | 0.00 | 81 | 1014.7 |
| 20260505075535 | 12 | 0 | 0.0 | 0.0 | 0.00 | 0.00 | 0.00 | 81 | 1014.7 |
| 20260505075035 | 13 | 0 | 0.0 | 0.0 | 0.00 | 0.00 | 0.00 | 80 | 1014.7 |
| 20260505074544 | 13 | 0 | 0.0 | 0.0 | 0.00 | 0.00 | 0.00 | 80 | 1014.7 |
| 20260505074036 | 13 | 0 | 0.0 | 0.0 | 0.00 | 0.00 | 0.00 | 79 | 1014.6 |
| 20260505073535 | 13 | 0 | 0.0 | 0.0 | 0.00 | 0.00 | 0.00 | 78 | 1014.6 |
| 20260505073042 | 13 | 0 | 0.0 | 0.0 | 0.00 | 0.00 | 0.00 | 78 | 1014.6 |
| 20260505072535 | 13 | 0 | 0.0 | 0.0 | 0.00 | 0.00 | 0.00 | 76 | 1014.6 |
| 20260505072035 | 14 | 0 | 0.0 | 0.0 | 0.00 | 0.00 | 0.00 | 76 | 1014.6 |
| 20260505071545 | 14 | 0 | 0.0 | 0.0 | 0.00 | 0.00 | 0.00 | 75 | 1014.6 |
| 20260505071035 | 14 | 0 | 0.0 | 0.0 | 0.00 | 0.00 | 0.00 | 76 | 1014.6 |
| 20260505070535 | 14 | 0 | 0.0 | 0.0 | 0.00 | 0.00 | 0.00 | 75 | 1014.5 |
| 20260505070059 | 14 | 0 | 0.0 | 0.0 | 0.00 | 0.00 | 0.00 | 74 | 1014.6 |
| 20260505065536 | 15 | 0 | 0.0 | 0.0 | 0.00 | 0.00 | 0.00 | 74 | 1014.5 |
| 20260505065034 | 15 | 0 | 0.0 | 0.0 | 0.00 | 0.00 | 0.00 | 74 | 1014.5 |
| 20260505064548 | 15 | 0 | 0.0 | 0.0 | 0.00 | 0.00 | 0.00 | 73 | 1014.6 |
| 20260505064034 | 15 | 0 | 0.0 | 0.0 | 0.00 | 0.00 | 0.00 | 73 | 1014.6 |
| 20260505063534 | 15 | 0 | 0.0 | 0.0 | 0.00 | 0.00 | 0.00 | 73 | 1014.6 |
| 20260505063048 | 15 | 0 | 0.0 | 0.0 | 0.00 | 0.00 | 0.00 | 73 | 1014.6 |
| 20260505062536 | 15 | 0 | 0.0 | 1.6 | 0.00 | 0.00 | 0.00 | 72 | 1014.6 |
| 20260505062037 | 16 | 0 | 0.0 | 1.6 | 0.00 | 0.00 | 0.00 | 71 | 1014.6 |
| 20260505061608 | 16 | 0 | 0.0 | 4.8 | 0.00 | 0.00 | 0.00 | 70 | 1014.5 |
| 20260505061035 | 16 | 0 | 0.0 | 4.8 | 0.00 | 0.00 | 0.00 | 71 | 1014.6 |
| 20260505060536 | 16 | 260 | 0.0 | 4.8 | 0.00 | 0.00 | 0.00 | 70 | 1014.5 |
| 20260505060050 | 16 | 0 | 0.0 | 4.8 | 0.00 | 0.00 | 0.00 | 70 | 1014.6 |
| 20260505055535 | 16 | 260 | 0.0 | 6.4 | 0.00 | 0.00 | 0.00 | 69 | 1014.7 |
| 20260505055037 | 16 | 0 | 1.6 | 6.4 | 0.00 | 0.00 | 0.00 | 69 | 1014.7 |
| 20260505054554 | 16 | 0 | 0.0 | 4.8 | 0.00 | 0.00 | 0.00 | 69 | 1014.6 |
| 20260505054034 | 16 | 0 | 0.0 | 4.8 | 0.00 | 0.00 | 0.00 | 69 | 1014.7 |
| 20260505053534 | 16 | 0 | 0.0 | 4.8 | 0.00 | 0.00 | 0.00 | 69 | 1014.7 |
| 20260505053047 | 16 | 0 | 0.0 | 4.8 | 0.00 | 0.00 | 0.00 | 69 | 1014.7 |
| 20260505052535 | 16 | 0 | 0.0 | 3.2 | 0.00 | 0.00 | 0.00 | 68 | 1014.8 |
| 20260505052035 | 17 | 0 | 0.0 | 4.8 | 0.00 | 0.00 | 0.00 | 68 | 1014.8 |
| 20260505051545 | 17 | 0 | 0.0 | 11.3 | 0.00 | 0.00 | 0.00 | 68 | 1014.7 |
| 20260505051035 | 17 | 0 | 1.6 | 11.3 | 0.00 | 0.00 | 0.00 | 68 | 1014.9 |
| 20260505050535 | 17 | 0 | 0.0 | 6.4 | 0.00 | 0.00 | 0.00 | 68 | 1014.9 |
| 20260505041550 | 17 | 263 | 1.6 | 9.7 | 0.00 | 0.00 | 0.00 | 65 | 1014.8 |
| 20260505041039 | 18 | 0 | 0.0 | 11.3 | 0.00 | 0.00 | 0.00 | 65 | 1014.6 |
| 20260505040535 | 18 | 0 | 1.6 | 12.9 | 0.00 | 0.00 | 0.00 | 65 | 1014.7 |
| 20260505040057 | 18 | 0 | 1.6 | 12.9 | 0.00 | 0.00 | 0.00 | 65 | 1014.7 |
| 20260505035534 | 18 | 269 | 0.0 | 11.3 | 0.00 | 0.00 | 0.00 | 65 | 1014.8 |
| 20260505035037 | 18 | 0 | 1.6 | 11.3 | 0.00 | 0.00 | 0.00 | 64 | 1014.7 |
| 20260505034547 | 18 | 0 | 1.6 | 11.3 | 0.00 | 0.00 | 0.00 | 64 | 1014.7 |
| 20260505034034 | 18 | 271 | 0.0 | 11.3 | 0.00 | 0.00 | 0.00 | 64 | 1014.7 |
| 20260505033535 | 18 | 264 | 1.6 | 14.5 | 0.00 | 0.00 | 0.00 | 64 | 1014.6 |
| 20260505033054 | 18 | 270 | 0.0 | 14.5 | 0.00 | 0.00 | 0.00 | 63 | 1014.7 |
| 20260505032535 | 18 | 0 | 3.2 | 6.4 | 0.00 | 0.00 | 0.00 | 63 | 1014.6 |
| 20260505032036 | 18 | 267 | 0.0 | 16.1 | 0.00 | 0.00 | 0.00 | 63 | 1014.7 |
| 20260505031551 | 19 | 268 | 0.0 | 17.7 | 0.00 | 0.00 | 0.00 | 63 | 1014.6 |
| 20260505031035 | 19 | 261 | 3.2 | 17.7 | 0.00 | 0.00 | 0.00 | 62 | 1014.6 |
| 20260505030535 | 19 | 269 | 3.2 | 11.3 | 0.00 | 0.00 | 0.00 | 63 | 1014.6 |
| 20260505030045 | 19 | 263 | 1.6 | 12.9 | 0.00 | 0.00 | 0.00 | 62 | 1014.6 |
| 20260505025535 | 19 | 281 | 3.2 | 16.1 | 0.00 | 0.00 | 0.00 | 62 | 1014.7 |
| 20260505025038 | 19 | 0 | 4.8 | 16.1 | 0.00 | 0.00 | 0.00 | 62 | 1014.7 |
| 20260505024542 | 19 | 0 | 3.2 | 12.9 | 0.00 | 0.00 | 0.00 | 61 | 1014.5 |
| 20260505024034 | 20 | 0 | 3.2 | 16.1 | 0.00 | 0.00 | 0.00 | 61 | 1014.5 |
| 20260505023534 | 20 | 271 | 4.8 | 16.1 | 0.00 | 0.00 | 0.00 | 61 | 1014.5 |
| 20260505023044 | 20 | 289 | 4.8 | 16.1 | 0.00 | 0.00 | 0.00 | 61 | 1014.4 |
| 20260505022534 | 20 | 0 | 0.0 | 12.9 | 0.00 | 0.00 | 0.00 | 61 | 1014.5 |
| 20260505022035 | 20 | 261 | 3.2 | 12.9 | 0.00 | 0.00 | 0.00 | 59 | 1014.4 |
| 20260505021542 | 20 | 265 | 3.2 | 12.9 | 0.00 | 0.00 | 0.00 | 59 | 1014.4 |
| 20260505021034 | 20 | 263 | 1.6 | 14.5 | 0.00 | 0.00 | 0.00 | 58 | 1014.3 |
| 20260505020535 | 20 | 271 | 3.2 | 14.5 | 0.00 | 0.00 | 0.00 | 57 | 1014.3 |
| 20260505020043 | 20 | 265 | 4.8 | 12.9 | 0.00 | 0.00 | 0.00 | 56 | 1014.3 |
| 20260505015535 | 19 | 286 | 1.6 | 9.7 | 0.00 | 0.00 | 0.00 | 54 | 1014.2 |
| 20260505015035 | 19 | 0 | 0.0 | 6.4 | 0.00 | 0.00 | 0.00 | 54 | 1014.2 |
| 20260505014545 | 19 | 0 | 0.0 | 6.4 | 0.00 | 0.00 | 0.00 | 52 | 1014.3 |
| 20260505014035 | 19 | 0 | 0.0 | 4.8 | 0.00 | 0.00 | 0.00 | 53 | 1014.1 |
| 20260505013535 | 19 | 265 | 1.6 | 4.8 | 0.00 | 0.00 | 0.00 | 53 | 1014.0 |
| 20260505013044 | 19 | 0 | 0.0 | 3.2 | 0.00 | 0.00 | 0.00 | 53 | 1014.0 |
| 20260505012535 | 19 | 0 | 0.0 | 4.8 | 0.00 | 0.00 | 0.00 | 52 | 1013.9 |
| 20260505012037 | 19 | 0 | 0.0 | 4.8 | 0.00 | 0.00 | 0.00 | 54 | 1013.9 |
| 20260505011545 | 19 | 273 | 0.0 | 3.2 | 0.00 | 0.00 | 0.00 | 53 | 1013.8 |
| 20260505011034 | 19 | 273 | 0.0 | 0.0 | 0.00 | 0.00 | 0.00 | 52 | 1013.8 |
| 20260505010535 | 20 | 0 | 0.0 | 3.2 | 0.00 | 0.00 | 0.00 | 52 | 1013.7 |
| 20260505010057 | 20 | 0 | 0.0 | 3.2 | 0.00 | 0.00 | 0.00 | 53 | 1013.6 |
| 20260505005535 | 20 | 0 | 0.0 | 0.0 | 0.00 | 0.00 | 0.00 | 51 | 1013.6 |
| 20260505005035 | 20 | 0 | 0.0 | 0.0 | 0.00 | 0.00 | 0.00 | 50 | 1013.5 |
| 20260505004543 | 20 | 0 | 0.0 | 0.0 | 0.00 | 0.00 | 0.00 | 50 | 1013.4 |
| 20260505004035 | 20 | 0 | 0.0 | 0.0 | 0.00 | 0.00 | 0.00 | 50 | 1013.4 |
| 20260505003534 | 21 | 0 | 0.0 | 0.0 | 0.00 | 0.00 | 0.00 | 49 | 1013.4 |
| 20260505003041 | 21 | 0 | 0.0 | 0.0 | 0.00 | 0.00 | 0.00 | 47 | 1013.2 |
| 20260505002534 | 21 | 0 | 0.0 | 0.0 | 0.00 | 0.00 | 0.00 | 46 | 1013.2 |
| 20260505002034 | 22 | 0 | 0.0 | 0.0 | 0.00 | 0.00 | 0.00 | 45 | 1013.2 |
| 20260505001547 | 22 | 0 | 0.0 | 1.6 | 0.00 | 0.00 | 0.00 | 44 | 1013.2 |
| 20260505001034 | 22 | 0 | 0.0 | 1.6 | 0.00 | 0.00 | 0.00 | 44 | 1013.2 |
| 20260505000535 | 22 | 0 | 0.0 | 6.4 | 0.00 | 0.00 | 0.00 | 42 | 1013.0 |
| 20260505000055 | 23 | 0 | 0.0 | 9.7 | 0.00 | 0.00 | 0.00 | 42 | 1013.0 |
| 20260504235535 | 23 | 273 | 1.6 | 12.9 | 0.00 | 0.00 | 0.00 | 40 | 1013.1 |